PAGEOS 1 DEB, 9468

Orbit data source: Space-Track

PAGEOS 1 DEB, 9468 is space debris in LEO originally from a launch on Fri, 24 Jun 1966 UTC launched from the Air Force Western Test Range (AFWTR). Debris objects in space refer to the collection of defunct objects orbiting the Earth. Examples of debris include non-operational satellites, rocket bodies, and fragments generated from explosions, collisions, or faulty payload assembly.

Loading next visibility...
Identifier
9468, 1966-056AH
Orbit
LEO
Country
Flag of USUS
Related business
Manufacturer
Unknown
Mission
Spacecraft
Bus & Motor
Unknown
Mass
Unknown
Launch date (UTC)
1966-06-24 (60 years ago)
Launch vehicle
Unknown
Launch site
Air Force Western Test Range (AFWTR)
Object type
Payload
Rocket body
Debris
Shape & HBR
Unknown shape, 0.2 m
Radar Cross Section
Medium (>0.1 m² and <1 m²)

Expand to show TLE details & history
Last TLE update: 22 hours ago

TLE from 22 hours ago
0 PAGEOS 1 DEB
1 09468U 66056AH  26149.86291846 -.00001385  00000-0 -10240+1 0  9992
2 09468  85.5856 109.2174 0618454 320.6767  35.0652  8.04523012 64319
Epoch: 2026-05-29T20:42Z
TLE epoch observation values (Epoch: 2026-05-29T20:42:36.154Z)
Latitude
-0.00005°
Longitude
-88.82045°
Altitude
3,626.35 km
Speed
6.466 km/s
True Right ascension
07h 16m 52s
True Declination
0° 00' 00"
Sunlit
Object was in daylight at epoch
Visualization orbit readout
Latitude
Unknown
Longitude
Unknown
Altitude
Unknown
Speed
Unknown
Apparent Right ascension
Unknown
Apparent Declination
Unknown
Sunlit
N/A
Visualization observer readout
Local Sidereal Time
03:56:37
Azimuth
Unknown
Elevation
Unknown
Doppler factor
Unknown
Orbital elements
Apogee altitude
4,790.986 km
Perigee altitude
3,489.932 km
Semi-major axis
10,518.596 km
Eccentricity
0.06185
Inclination
85.5856°
RAAN
109.2174°
Arg. of periapsis
320.6767°
True anomaly
39.40675°
Mean anomaly
35.0652°
Eccentric anomaly
37.20798°
Mean motion
2.0119 °/min
Orbital period
178.94 mins
BSTAR
-1.024
Loading maneuver chart data...
Computing Atmospheric mass density...

Documentation

Showing up to 5 results
|